CZ-6A DEB

Satellite information

Favourite Embed

Satellite Type and Status

DEBRISIN ORBIT

Key statistics

Satellite CZ-6A DEB at a glance.

Uptime

914

Days in orbit

Revolutions

≈ 14.0

Per day

Orbit

SSO

Sun Synchronous Orbit

Inclination

98.9

Latest

Satellite identification and parameters

Extended collection of information and parameters for CZ-6A DEB.

Object identification

Identified? True

Debris? True

Object name: CZ-6A DEB

International designator: 2022-151SV

Object number (NORAD): 54956

Object ID (CCSDS): 54956

Country: PEOPLES REPUBLIC OF CHINA (PRC)

Current information (Y/N): Y

RCS size: SMALL

Orbital parameters

Period: 102.898 minutes

Inclination: 98.8615 deg

SMA: 7273.841 km

Apoapsis: 994.304 km

Periapsis: 797.109 km

RAAN: 116.2064 deg

Eccentricy: 0.0135551

Argument of periapsis: 37.6784 deg

Mean anomaly: 323.3782 deg

Mean motion: 13.99448809 rev/day

Mean motion (dot): 0.00001916 rev/day2

B* drag term: 0.0012418 1/REarth

Two-line elements (TLE)

Creation date: May 11, 2025, 10:21 p.m.

Reference frame: TEME

Reference center: EARTH

Epoch: May 10, 2025, 9:20 p.m. UTC

TLE line 0: 0 CZ-6A DEB

TLE line 1: 1 54956U 22151SV 25130.88921937 .00001916 00000-0 12418-2 0 9993

TLE line 2: 2 54956 98.8615 116.2064 0135551 37.6784 323.3782 13.99448809126959

Live tracking on map

Real-time ground track for satellite CZ-6A DEB.

In-orbit conjunctions

A list of the most updated potential collisions computed for object CZ-6A DEB.

Target Orbit TCA Probability of collision Miss distance Type
COSMOS 198 LEO 2024-10-11 18:47:00 0.0006966901 394.0 (m) PAYLOAD

Associated space launch

Chinese satellite reported for atmospheric/ocean/environmental/spatial parameter research purposes, details TBD.

CZ-6A DEB was lifted into orbit during the mission ‘Long March 6A | Yunhai 3’, on board a Long March 6A space rocket.

The launch took place on Nov. 11, 2022, 10:52 p.m. from Launch Complex 9A.

For more information about the launch, click the button.

Launch to space Long March 6A | Yunhai 3
Long March 6A | Yunhai 3

Agency: N/A

Status: Launch Successful

Launch date: Nov. 11, 2022, 10:52 p.m. UTC

Rocket: Long March 6A

Launch pad: Launch Complex 9A

Location: Taiyuan Satellite Launch Center, People's Republic of China

...

Latest news about this satellite

There are no fresh news available about this satellite. Check back as we update our databases every day.


Newsletter sign-up

Weekly statistics, charts and insights to help you stay on top of the space industry.